This demonstration page uses our WeatherBlox Daily Observations layout. Learn more.

38.88101, -77.10428

Hourly Observations for January 19, 2016

Temp ( °F °C ) Dew Point ( °F °C ) Humidity (%) Winds ( mph kmh ) Pressure ( in mb ) Visibility ( mi km ) Precip ( " mm )
12:52 am 00:52 Clear 16 -8.9 -3 -19.4 43 43 NW 15 24 30.25 1024 10 16.0934 0 0
1:52 am 01:52 Clear 16 -8.9 -3 -19.4 43 43 WNW 14 22 30.25 1024 10 16.0934 0 0
2:52 am 02:52 Clear 16 -8.9 -3 -19.4 43 43 WNW 7 11 30.25 1025 10 16.0934 0 0
3:52 am 03:52 Clear 16 -8.9 -3 -19.4 43 43 WNW 24 39 30.24 1024 10 16.0934 0 0
4:52 am 04:52 Clear 16 -8.9 -3 -19.4 43 43 WNW 9 15 30.26 1025 10 16.0934 0 0
5:52 am 05:52 Clear 15 -9.4 -2 -18.9 46 46 NW 14 22 30.27 1025 10 16.0934 0 0
6:52 am 06:52 Clear 15 -9.4 -1 -18.3 49 49 NW 14 22 30.3 1026 10 16.0934 0 0
7:52 am 07:52 Sunny 16 -8.9 -1 -18.3 47 47 W 16 26 30.3 1026 10 16.0934 0 0
8:52 am 08:52 Sunny 18 -7.8 -1 -18.3 43 43 NW 15 24 30.31 1026 10 16.0934 0 0
9:52 am 09:52 Sunny 19 -7.2 -1 -18.3 41 41 NW 18 30 30.32 1027 10 16.0934 0 0
10:52 am 10:52 Mostly Sunny 22 -5.6 0 -17.8 38 38 WNW 20 31 30.32 1027 10 16.0934 0 0
11:52 am 11:52 Mostly Sunny 24 -4.4 1 -17.2 36 36 WNW 15 24 30.32 1027 10 16.0934 0 0
12:52 pm 12:52 Partly Cloudy 26 -3.3 1 -17.2 34 34 NW 18 30 30.31 1027 10 16.0934 0 0
1:52 pm 13:52 Mostly Sunny 26 -3.3 1 -17.2 34 34 WNW 23 37 30.3 1026 10 16.0934 0 0
2:52 pm 14:52 Mostly Sunny 27 -2.8 1 -17.2 32 32 NW 21 33 30.29 1026 10 16.0934 0 0
3:52 pm 15:52 Sunny 27 -2.8 1 -17.2 32 32 W 16 26 30.29 1026 10 16.0934 0 0
4:52 pm 16:52 Sunny 26 -3.3 1 -17.2 34 34 NW 16 26 30.32 1027 10 16.0934 0 0
5:52 pm 17:52 Clear 25 -3.9 2 -16.7 37 37 WNW 14 22 30.33 1027 10 16.0934 0 0
6:52 pm 18:52 Clear 24 -4.4 2 -16.7 38 38 WNW 14 22 30.35 1028 10 16.0934 0 0
7:52 pm 19:52 Clear 24 -4.4 3 -16.1 40 40 WNW 13 20 30.36 1028 10 16.0934 0 0
8:52 pm 20:52 Clear 23 -5 3 -16.1 42 42 NW 10 17 30.36 1028 10 16.0934 0 0
9:52 pm 21:52 Clear 22 -5.6 3 -16.1 44 44 WNW 9 15 30.36 1028 10 16.0934 0 0
10:52 pm 22:52 Clear 21 -6.1 3 -16.1 45 45 NW 13 20 30.38 1029 10 16.0934 0 0
11:52 pm 23:52 Clear 21 -6.1 4 -15.6 47 47 NW 14 22 30.37 1028 10 16.0934 0 0

Powered by AerisWeather